STARLINK-3389, 51124

Orbit data source: Space-Track

STARLINK-3389, 51124 is a payload satellite owned by SpaceX/Seattle (US) in LEO that was launched on Wed, 19 Jan 2022 UTC via an FALCON 9 launch vehicle from the Air Force Eastern Test Range (AFETR). Payload-class satellites include a variety of spacecraft equipped with specific instruments for various scientific and technological missions. These include communications satellites like Starlink; space stations such as the ISS; scientific satellites like the Hubble; Earth observation satellites from companies like Planet Labs, Umbra, and HawkEye 360; GPS; miniature CubeSats for education and research; and military/defense satellites.

Loading next visibility...
Identifier
51124, 2022-005W
Orbit
LEO
Country
Flag of USUS
Related business
Manufacturer
SpaceX/Seattle
Mission
Operational Commercial Communications
Bus & Motor
STARLINK, Unknown motor
Mass
297 kg wet, ~275 kg dry
Launch date (UTC)
2022-01-19 (4 years ago)
Launch vehicle
FALCON 9
Launch site
Air Force Eastern Test Range (AFETR)
Object type
Payload
Rocket body
Debris
Shape & HBR
Box + 1 Pan, 10.1 m
Radar Cross Section
13.562 m², Large (>1 m²)

Expand to show TLE details & history
Last TLE update: 2 days ago

TLE from 2 days ago
0 STARLINK-3389
1 51124U 22005W   26171.43279706  .00000486  00000-0  48663-4 0  9996
2 51124  53.1587 197.7735 0001300  91.0979 269.0161 15.08824768244253
Epoch: 2026-06-20T10:23Z
TLE epoch observation values (Epoch: 2026-06-20T10:23:13.665Z)
Latitude
-0.00007°
Longitude
133.31901°
Altitude
540.697 km
Speed
7.593 km/s
True Right ascension
13h 11m 05s
True Declination
0° 00' 00"
Sunlit
Object was in daylight at epoch
Visualization orbit readout
Latitude
Unknown
Longitude
Unknown
Altitude
Unknown
Speed
Unknown
Apparent Right ascension
Unknown
Apparent Declination
Unknown
Sunlit
N/A
Visualization observer readout
Local Sidereal Time
21:41:37
Azimuth
Unknown
Elevation
Unknown
Doppler factor
Unknown
Orbital elements
Apogee altitude
540.944 km
Perigee altitude
539.145 km
Semi-major axis
6,918.181 km
Eccentricity
0.00013
Inclination
53.1587°
RAAN
197.7735°
Arg. of periapsis
91.0979°
True anomaly
269.00121°
Mean anomaly
269.0161°
Eccentric anomaly
269.00865°
Mean motion
3.77186 °/min
Orbital period
95.44 mins
BSTAR
0.000048663
Loading maneuver chart data...
Computing Atmospheric mass density...
Loading historical data...
Loading historical data...
Loading historical data...
Loading historical data...
Loading historical data...
Loading historical data...
Loading historical data...

Documentation

Showing up to 5 results
|